Home   Weather   Dijon   Past weeks

Flag for France Past Weather in Dijon, Burgundy, France — Yesterday and Last 2 Weeks

Now
61 °F

Clear.


Feels Like: 61 °F
Forecast: 45 / 74 °F
Wind: 3 mph from North

Location: Dijon Airport

Current Time: Sep 27, 2016 at 10:42:17 PM

Latest Report: Sep 27, 2016 at 10:00 PM


Visibility: 10 mi

Pressure: 30.36 "Hg

Humidity: 63%

Dew Point: 48 °F

Location of DijonLocation

Past Weather in Dijon — Graph

°F

Dijon Temperature Yesterday

Maximum temperature yesterday: 68 °F (at 2:30 PM)
Minimum temperature yesterday: 55 °F (at 8:30 AM)
Average temperature yesterday: 62 °F

High & Low Weather Summary for the Past Weeks

 TemperatureHumidityPressure
High90 °F (Sep 13, 4:30 PM)100% (Sep 15, 8:30 AM)30.36 "Hg (Sep 15, 8:30 AM)
Low46 °F (Sep 22, 7:00 AM)29% (Sep 13, 4:30 PM)29.80 "Hg (Sep 14, 7:30 PM)
Average62 °F75%30.08 "Hg
* Reported Sep 12 9:00 PM — Sep 27 9:30 PM, Dijon, Weather by CustomWeather, © 2016

Note: Actual official high and low records may vary slightly from our data, if they occured in-between our weather recording intervals... More about our weather records

Advertising

Dijon Weather History for the Previous 24 Hours

Scroll right to see more
 ConditionsComfort  
Time TempWeatherWind HumidityBarometerVisibility
9:30 PM
Tue, Sep 27
59 °FClear.6 mph68%30.36 "Hg10 mi
9:00 PM61 °FClear.5 mph68%30.36 "Hg10 mi
8:30 PM59 °FClear.No wind72%30.33 "Hg10 mi
8:00 PM63 °FClear.3 mph68%30.33 "Hg10 mi
7:30 PM66 °FClear.3 mph56%30.33 "Hg10 mi
7:00 PM68 °FSunny.3 mph53%30.33 "Hg10 mi
6:30 PM72 °FPassing clouds.3 mph47%30.30 "HgN/A
6:00 PM72 °FSunny.3 mph47%30.30 "Hg10 mi
5:30 PM72 °FSunny.2 mph47%30.30 "Hg10 mi
5:00 PM72 °FPassing clouds.3 mph47%30.30 "HgN/A
4:30 PM72 °FSunny.3 mph50%30.30 "Hg10 mi
4:00 PM72 °FPassing clouds.3 mph47%30.30 "HgN/A
3:30 PM72 °FSunny.2 mph50%30.30 "Hg10 mi
3:00 PM72 °FSunny.3 mph47%30.30 "Hg10 mi
2:30 PM70 °FSunny.5 mph50%30.30 "Hg10 mi
2:00 PM70 °FPassing clouds.5 mph46%30.30 "HgN/A
1:30 PM68 °FPassing clouds.5 mph46%30.33 "HgN/A
1:00 PM68 °FPassing clouds.7 mph46%30.30 "HgN/A
12:30 PM66 °FPassing clouds.7 mph49%30.30 "HgN/A
12:00 PM66 °FSunny.8 mph49%30.33 "Hg10 mi
11:30 AM64 °FPassing clouds.8 mph56%30.30 "HgN/A
11:00 AM63 °FPassing clouds.6 mph56%30.30 "HgN/A
10:30 AM61 °FSunny.3 mph59%30.30 "Hg10 mi
10:00 AM57 °FMostly cloudy.3 mph67%30.30 "HgN/A
9:30 AM57 °FSunny.6 mph67%30.30 "Hg10 mi
9:00 AM55 °FSunny.5 mph72%30.30 "Hg10 mi
8:30 AM54 °FSunny.5 mph77%30.27 "Hg10 mi
8:00 AM54 °FPassing clouds.6 mph77%30.27 "HgN/A
7:30 AM54 °FPassing clouds.6 mph77%30.27 "HgN/A
7:00 AM52 °FMostly cloudy.6 mph82%30.27 "HgN/A
6:30 AM52 °FClear.5 mph77%30.24 "Hg10 mi
6:00 AM52 °FClear.6 mph82%30.24 "Hg10 mi
5:30 AM52 °FPartly cloudy.6 mph77%30.24 "HgN/A
5:00 AM54 °FOvercast.6 mph72%30.24 "HgN/A
4:30 AM54 °FOvercast.5 mph77%30.24 "HgN/A
4:00 AM54 °FOvercast.7 mph77%30.24 "HgN/A
3:30 AM54 °FOvercast.6 mph77%30.24 "HgN/A
3:00 AM54 °FMostly cloudy.5 mph77%30.24 "HgN/A
2:30 AM55 °FPassing clouds.7 mph72%30.21 "HgN/A
2:00 AM57 °FOvercast.5 mph67%30.21 "HgN/A
1:30 AM59 °FOvercast.5 mph63%30.21 "HgN/A
1:00 AM59 °FOvercast.5 mph63%30.21 "HgN/A
12:30 AM59 °FOvercast.7 mph68%30.21 "HgN/A
12:00 AM59 °FOvercast.5 mph68%30.21 "HgN/A
11:30 PM
Mon, Sep 26
57 °FOvercast.5 mph67%30.21 "HgN/A
11:00 PM59 °FPassing clouds.7 mph68%30.24 "HgN/A
10:30 PM61 °FPartly cloudy.5 mph59%30.21 "HgN/A
10:00 PM61 °FOvercast.8 mph63%30.24 "HgN/A
Weather by CustomWeather, © 2016

See weather overviewHow to use our weather pages